Temperature
19 19 18 18 18 18 18 19 19 20 19 20 20 19 18 17 16 15 15 14 14 14 14 14 14 13 13 13 13 12 12 12 12 12 12 12 12 12 12 12 12 11 11 11
18 18 18 17 18 18 18 18 19 19 19 20 19 18 17 16 15 15 15 14 14 14 14 14 13 13 13 13 12 12 12 12 12 12 12 12 12 12 11 11 11 11 11 11
18 18 17 17 18 18 18 18 18 18 19 19 18 17 17 16 15 15 14 14 14 14 13 13 13 13 13 12 12 12 12 12 12 12 12 11 11 11 11 11 11 11 11 10
18 18 17 18 19 18 18 18 18 18 18 18 18 17 16 15 15 14 14 13 13 13 13 13 13 13 12 12 12 12 11 11 11 11 11 11 11 11 11 11 10 10 10 10
17 17 18 18 17 17 17 18 18 18 17 17 16 16 16 15 14 14 13 13 13 13 13 13 13 12 12 12 12 11 11 11 11 11 11 11 11 11 10 10 10 10 10 10
16 16 17 18 18 17 17 17 17 17 17 16 15 17 17 15 14 13 13 13 13 13 12 12 12 12 12 12 11 11 11 11 11 10 10 10 10 10 10 10 10 10 9 9
16 16 17 18 16 16 16 17 16 16 16 15 15 16 15 14 13 13 13 13 13 13 12 12 12 12 11 11 11 11 11 10 10 10 10 10 10 10 10 10 9 9 9 9
16 16 16 16 15 16 17 16 15 15 15 14 14 14 13 13 13 13 12 12 12 12 12 12 12 11 11 11 11 10 10 10 10 10 10 9 9 9 9 9 9 9 8 8
16 17 16 15 15 15 15 15 15 14 14 13 13 13 12 12 12 12 12 12 12 12 12 11 11 11 11 11 10 10 10 9 9 9 9 9 9 9 9 8 8 8 8 8
15 16 15 14 14 14 13 14 13 13 13 13 12 12 12 12 11 11 11 11 11 11 11 11 11 11 10 10 10 9 9 9 9 9 9 8 9 9 8 8 8 8 7 7
14 15 14 14 13 13 13 13 13 13 12 12 12 12 12 11 11 11 11 11 11 11 10 10 10 10 10 10 9 9 9 8 8 8 8 8 8 8 8 8 8 8 7 7
14 15 15 14 13 13 13 12 12 12 12 12 12 11 11 11 11 11 10 10 10 10 10 10 10 9 9 9 9 9 8 8 8 8 8 8 8 8 8 8 8 7 7 7
13 12 13 12 12 12 12 12 12 12 12 11 11 11 11 10 10 10 10 10 10 10 9 9 9 9 9 9 8 8 8 8 8 8 7 7 7 7 7 7 7 7 7 7
11 11 11 11 11 12 11 11 11 11 11 11 11 10 10 10 10 10 9 9 9 9 9 9 9 9 8 8 8 8 8 8 7 7 7 7 7 6 6 6 6 6 6 6
11 11 11 11 11 11 11 11 10 11 11 10 10 10 10 9 9 9 9 9 9 9 9 8 8 8 8 8 8 7 7 7 7 7 7 6 6 6 6 6 6 6 6 6
10 10 10 10 10 10 10 10 10 10 10 10 10 9 9 9 9 9 9 8 8 8 8 8 8 8 8 8 7 7 7 7 7 6 6 6 6 6 6 5 5 5 5 5
9 9 9 9 9 9 9 10 9 9 9 9 9 9 9 8 8 8 8 8 8 8 8 8 7 7 7 7 7 7 7 7 6 6 6 6 6 5 5 5 5 5 5 5
9 9 9 9 9 9 9 9 9 9 9 9 9 8 8 8 8 8 8 8 7 7 7 7 7 7 7 7 7 7 6 6 6 6 5 5 5 5 5 5 5 4 4 4
8 8 8 8 8 8 9 9 9 9 8 8 8 8 8 8 7 7 7 7 7 7 7 7 6 6 6 6 6 6 6 6 5 5 5 5 5 4 4 4 4 4 4 4
7 8 8 8 8 8 8 8 8 8 8 8 8 7 7 7 7 7 7 7 6 6 6 6 6 6 6 6 6 6 5 5 5 5 4 4 4 4 4 4 4 3 3 3
7 7 7 7 7 8 8 8 8 8 8 7 7 7 7 7 7 6 6 6 6 6 6 6 5 5 5 5 5 5 5 5 5 4 4 4 4 3 3 3 3 3 3 3
6 7 7 7 7 7 7 7 7 7 7 7 7 7 6 6 6 6 6 6 6 5 5 5 5 5 5 5 5 4 4 4 4 4 4 3 3 3 3 3 3 3 3 3
6 6 6 6 7 7 7 6 6 6 6 6 6 6 6 6 5 5 5 5 5 5 5 5 4 4 4 4 4 4 4 3 3 3 3 3 3 3 3 2 2 2 2 2
6 6 6 6 6 6 6 6 6 6 6 5 5 6 5 5 5 5 5 5 5 5 4 4 4 4 4 4 3 3 3 3 3 3 3 3 3 2 2 2 2 2 2 2
6 6 6 5 5 5 5 5 5 5 5 5 5 5 5 5 5 5 5 5 5 4 4 4 4 3 3 3 3 3 3 3 3 2 2 2 2 2 2 2 2 2 2 2
5 5 5 5 5 5 5 5 5 5 4 4 4 5 5 5 5 4 4 4 4 4 4 3 3 3 3 2 2 2 2 2 2 2 2 2 2 2 1 2 1 1 1 1
5 5 5 5 5 5 4 4 4 4 4 4 4 4 4 4 4 4 4 4 3 3 3 3 3 2 2 2 2 2 2 2 2 2 1 1 1 1 1 1 1 1 1 1
Wind_Speed
10 8 6 8 9 11 13 14 13 13 12 11 9 8 6 4 3 3 4 4 4 3 3 4 4 4 4 4 4 4 4 4 4 4 4 4 3 4 3 3 4 4 4 4
11 9 9 11 11 11 13 14 15 15 14 11 9 6 4 3 4 4 4 4 3 3 4 4 4 4 4 4 5 5 5 5 4 4 4 4 4 4 3 3 4 4 4 4
9 8 9 11 11 12 11 11 12 13 12 8 7 6 5 5 5 5 4 4 4 4 4 4 4 4 4 4 4 5 5 5 5 4 5 4 4 4 4 4 3 4 4 4
8 8 10 6 3 8 11 11 11 10 9 8 8 7 5 4 5 4 4 4 4 4 4 4 4 4 4 4 5 5 5 5 4 4 4 4 4 4 4 4 3 4 4 4
6 9 10 7 4 5 8 9 7 9 9 7 4 4 5 4 4 4 4 3 3 4 4 4 4 4 4 4 4 4 4 5 4 4 4 4 5 5 4 4 4 4 4 4
8 9 9 4 1 3 6 8 4 6 7 5 4 6 5 2 3 3 3 3 2 2 3 4 4 4 4 4 4 4 4 4 4 4 5 5 5 4 4 4 4 4 4 4
12 11 8 2 1 3 6 4 2 5 6 6 7 6 4 2 3 3 3 2 3 3 3 4 4 5 5 4 4 3 3 3 4 4 5 5 5 4 4 4 4 4 4 4
10 10 8 3 3 5 5 4 4 5 5 6 7 5 3 2 2 3 3 2 3 3 3 4 4 5 5 4 3 3 3 3 4 4 4 4 4 5 5 5 5 5 5 4
8 7 3 4 5 5 5 6 6 6 6 5 6 5 4 3 3 3 3 3 3 3 3 3 4 5 5 4 3 3 3 3 3 3 3 4 4 5 5 5 4 4 4 4
8 8 7 6 7 7 7 7 7 6 6 5 6 6 5 4 3 3 3 3 3 3 4 4 4 4 4 3 3 4 4 4 3 3 3 4 3 4 4 5 5 5 5 4
10 9 7 7 7 7 7 7 6 6 5 5 6 6 5 4 4 4 3 3 3 3 3 4 4 3 3 3 4 4 4 4 4 3 3 3 3 3 4 4 4 5 5 5
9 8 8 8 7 7 7 7 6 5 5 5 5 6 5 5 4 4 4 4 4 3 3 3 3 3 3 3 4 4 4 4 3 3 3 3 3 3 2 4 3 4 5 5
10 9 9 9 8 7 6 6 6 5 5 5 4 4 4 4 4 4 4 4 4 4 3 3 3 3 3 3 4 4 4 4 3 3 3 3 3 4 3 2 3 4 5 5
10 9 9 9 8 7 6 6 5 5 4 4 3 3 3 3 3 4 4 4 4 3 3 3 3 3 3 3 4 4 4 4 4 4 4 4 4 4 4 4 3 3 4 4
9 10 10 9 8 7 6 5 5 4 3 3 2 2 3 3 3 3 3 3 3 3 3 3 3 3 3 3 4 4 4 3 3 3 3 4 4 4 4 4 4 3 2 2
9 9 9 8 8 7 6 5 6 5 4 3 3 3 3 3 3 3 3 3 3 3 3 3 3 3 3 3 3 3 3 3 3 3 3 3 3 4 4 4 4 3 3 3
8 8 7 7 7 7 7 6 6 5 4 4 4 3 3 2 2 2 2 3 3 3 3 3 3 3 3 3 3 3 3 3 3 4 4 4 3 4 4 4 4 4 4 3
9 9 8 7 7 6 6 6 6 5 5 5 4 4 4 3 3 3 2 2 2 2 3 3 3 2 3 3 3 3 3 3 3 4 4 4 4 4 4 4 4 4 4 3
7 7 6 6 6 6 6 5 5 5 4 4 5 5 5 4 3 3 2 3 3 3 3 3 2 3 3 3 2 3 3 3 3 3 4 3 4 4 4 4 4 4 4 3
5 5 5 5 5 5 5 5 5 4 4 4 5 5 4 4 3 3 3 3 3 2 2 2 3 3 3 2 2 3 3 4 4 3 3 4 4 4 4 4 4 4 4 4
4 4 4 5 4 4 5 5 4 4 4 5 5 5 4 4 3 3 4 3 2 2 2 1 2 2 2 2 2 3 3 4 4 4 4 4 4 4 4 4 4 4 5 4
3 3 4 3 3 3 3 3 4 4 4 4 4 4 4 3 3 4 4 3 2 1 1 2 2 2 2 2 2 3 3 3 4 4 4 4 4 4 4 5 5 5 5 5
3 3 3 3 3 2 2 2 3 3 4 4 4 4 3 3 3 3 3 2 2 2 2 2 1 2 2 2 2 3 3 4 4 4 4 5 5 5 5 5 5 5 5 5
3 3 3 3 2 2 2 2 2 2 2 2 3 3 3 3 2 2 2 2 2 2 2 1 1 2 3 2 3 3 4 4 4 4 4 4 5 5 5 5 5 5 5 5
3 3 3 3 3 2 2 2 2 2 2 2 2 2 3 2 2 2 2 2 2 2 2 2 2 2 2 3 3 3 4 4 4 4 4 4 4 4 4 4 5 5 5 5
3 3 3 3 3 2 2 2 2 2 2 2 2 2 2 2 2 2 2 2 2 2 2 2 2 2 3 3 3 4 4 4 4 4 4 4 4 4 4 4 5 5 5 5
3 3 2 2 2 2 2 2 3 3 3 3 2 2 2 1 1 2 2 1 2 2 2 2 2 3 3 3 3 3 4 4 4 4 4 4 4 4 4 5 4 5 5 5
Wind_Direction
265 266 259 257 254 241 239 246 256 266 270 278 286 287 282 252 220 206 199 191 188 190 185 175 174 177 190 193 193 191 193 199 205 206 205 208 209 214 217 221 223 223 222 221
257 251 255 255 258 252 248 250 257 266 268 276 285 287 274 236 211 213 213 207 201 196 192 190 185 184 189 195 196 197 201 208 209 208 204 209 213 212 215 224 232 227 224 219
259 254 258 253 248 244 246 243 253 260 271 279 271 261 254 238 220 222 225 216 211 207 198 196 194 190 194 194 194 202 206 209 208 209 209 209 211 210 214 220 226 225 225 222
262 256 248 254 247 241 247 249 252 265 277 277 272 268 259 243 232 233 231 223 214 212 202 197 193 188 187 189 196 204 208 209 208 211 214 214 212 214 219 222 221 223 224 221
248 256 261 248 237 237 242 251 261 263 269 275 286 273 253 238 239 241 233 232 226 214 208 195 188 189 186 187 194 205 211 213 213 215 216 217 217 216 220 221 222 222 222 222
243 254 259 258 251 246 250 252 270 269 267 265 256 262 263 251 237 239 233 222 217 212 198 192 188 189 193 194 198 209 217 222 222 220 220 223 225 223 220 217 220 222 222 227
240 250 259 274 83 183 235 280 317 281 270 252 249 267 288 257 233 230 227 216 198 194 194 193 193 195 203 205 211 216 218 223 226 224 225 228 227 222 216 214 216 220 223 227
232 242 248 156 163 218 277 312 300 291 282 265 262 277 274 246 222 213 213 204 198 196 197 192 192 199 211 218 220 214 210 216 224 227 227 225 222 221 217 214 219 222 225 228
232 245 286 210 235 266 298 290 294 291 291 276 264 264 259 248 228 213 211 204 204 204 195 195 197 202 216 222 216 212 210 216 226 233 231 227 221 220 221 220 222 224 226 231
249 252 257 255 260 269 277 283 290 289 287 270 261 261 254 245 231 216 212 205 204 202 200 204 208 209 220 221 217 215 218 224 229 235 237 234 231 230 228 222 221 224 226 231
253 261 265 257 261 272 276 280 285 286 280 265 260 256 246 238 226 217 210 207 203 204 209 213 213 218 221 217 216 218 225 231 233 236 244 245 240 246 245 242 239 233 229 229
253 260 266 274 279 276 272 274 276 279 281 269 256 253 246 236 225 215 210 210 208 207 214 225 219 222 229 222 218 221 227 231 234 234 237 241 244 249 274 264 248 249 256 252
263 274 273 277 280 276 270 271 274 270 271 268 261 251 238 230 215 206 204 205 207 210 219 227 230 231 233 230 227 230 235 235 238 237 237 241 244 249 254 257 236 235 237 243
259 266 268 265 266 267 269 277 279 273 270 262 253 242 227 214 201 200 203 206 205 206 218 229 233 242 247 236 229 234 239 242 244 242 241 244 247 250 251 253 251 242 228 213
257 252 257 268 271 269 267 268 267 263 258 252 238 222 211 208 204 205 203 197 195 203 216 228 237 253 259 243 234 237 240 241 245 251 247 246 244 248 251 252 254 245 235 211
264 256 253 256 260 263 259 251 250 252 248 247 236 228 222 219 210 200 195 192 199 214 226 236 248 262 261 251 247 247 246 245 248 249 249 245 242 246 251 254 257 249 237 234
256 253 249 248 251 252 250 247 248 247 239 232 232 233 230 229 217 206 209 212 217 228 235 241 252 263 255 251 250 253 255 244 233 246 247 243 240 241 247 251 253 255 247 228
251 253 252 250 249 248 249 248 246 242 238 237 230 223 220 219 219 220 219 219 228 246 257 259 262 261 251 250 252 254 250 247 243 246 247 244 244 245 243 245 249 255 252 230
249 248 249 250 251 250 250 249 248 245 239 229 220 219 221 225 226 224 222 225 235 249 269 282 285 255 250 251 258 252 248 243 246 248 249 245 243 246 246 246 248 253 250 239
249 248 251 253 251 249 249 245 242 240 232 221 217 218 219 219 216 214 219 227 235 251 262 272 263 261 263 254 255 253 249 247 246 247 248 247 247 249 248 248 250 253 254 245
256 252 254 256 257 253 245 237 230 230 225 216 213 216 219 219 215 216 223 233 246 273 268 252 249 264 269 283 258 256 250 250 248 245 242 242 246 250 252 249 250 250 251 248
257 258 263 266 267 267 256 238 227 220 212 212 216 215 213 214 214 221 228 240 246 260 265 251 257 281 298 293 261 260 255 256 257 252 246 244 242 243 249 251 250 250 249 247
259 261 265 265 262 268 267 243 221 209 208 210 212 209 212 219 219 222 236 249 247 246 259 257 289 306 295 271 261 261 260 259 259 257 251 246 245 243 244 248 248 249 248 247
255 253 260 265 257 242 244 244 231 219 215 217 220 219 218 218 230 237 252 232 236 242 255 253 249 264 272 268 265 263 261 260 259 259 258 253 249 246 244 246 248 248 246 246
249 244 241 236 236 243 247 244 235 222 217 222 226 225 229 231 240 250 254 239 232 234 256 252 241 259 270 273 270 268 267 264 263 263 261 261 258 254 249 246 245 246 248 246
253 252 248 242 240 240 240 232 230 229 224 234 244 239 239 239 235 241 247 239 244 264 271 264 256 261 271 273 273 275 274 272 267 263 263 264 262 258 254 249 246 245 247 247
259 257 250 242 242 238 236 231 229 232 230 228 234 242 238 235 228 230 240 247 253 261 265 267 265 267 271 271 272 273 274 274 271 268 267 265 262 259 257 255 252 247 246 247
Height
1501 1502 1504 1504 1505 1505 1504 1500 1501 1496 1496 1493 1492 1494 1495 1496 1497 1498 1499 1500 1500 1501 1502 1503 1504 1505 1506 1507 1508 1509 1510 1511 1511 1512 1513 1514 1515 1516 1517 1517 1518 1518 1519 1519
1501 1501 1502 1503 1501 1501 1500 1498 1497 1495 1494 1492 1493 1493 1494 1495 1496 1496 1497 1498 1499 1500 1501 1501 1502 1503 1504 1504 1505 1506 1507 1508 1509 1510 1510 1511 1512 1513 1513 1514 1515 1515 1516 1516
1499 1498 1500 1499 1495 1496 1495 1493 1493 1493 1490 1489 1490 1492 1492 1493 1494 1494 1495 1496 1497 1498 1498 1499 1500 1501 1501 1502 1502 1503 1504 1505 1506 1506 1507 1508 1509 1509 1510 1510 1511 1512 1512 1512
1498 1498 1502 1490 1487 1489 1490 1489 1489 1488 1488 1488 1489 1490 1490 1491 1492 1492 1493 1493 1494 1495 1496 1497 1498 1498 1499 1499 1500 1500 1501 1502 1502 1503 1504 1504 1505 1506 1506 1507 1507 1508 1508 1508
1499 1497 1489 1486 1487 1488 1488 1486 1486 1486 1486 1487 1488 1488 1487 1488 1489 1490 1490 1491 1492 1493 1494 1494 1495 1496 1496 1497 1497 1498 1498 1498 1499 1500 1500 1501 1501 1502 1502 1503 1503 1503 1504 1504
1497 1498 1493 1484 1484 1486 1487 1484 1484 1484 1484 1485 1487 1484 1483 1485 1486 1487 1488 1489 1489 1490 1491 1492 1493 1493 1494 1494 1494 1494 1495 1495 1496 1496 1496 1497 1497 1498 1498 1499 1499 1499 1500 1500
1493 1492 1484 1481 1485 1486 1489 1483 1483 1483 1483 1483 1484 1483 1483 1483 1483 1484 1485 1486 1486 1487 1488 1489 1490 1491 1491 1491 1492 1492 1492 1492 1492 1493 1493 1493 1493 1494 1494 1495 1495 1496 1496 1496
1488 1490 1486 1482 1484 1484 1482 1481 1481 1481 1481 1481 1481 1481 1481 1480 1481 1481 1482 1483 1484 1485 1485 1487 1487 1488 1488 1489 1489 1489 1489 1489 1489 1489 1489 1489 1489 1490 1490 1491 1491 1491 1492 1492
1481 1481 1479 1480 1481 1481 1481 1481 1480 1480 1479 1479 1479 1479 1478 1478 1478 1478 1479 1480 1481 1482 1482 1483 1484 1485 1485 1485 1486 1486 1486 1486 1486 1486 1486 1486 1486 1486 1486 1486 1487 1487 1488 1488
1479 1477 1478 1479 1479 1479 1479 1479 1478 1478 1477 1476 1476 1476 1476 1476 1476 1476 1476 1477 1478 1479 1479 1480 1481 1481 1482 1482 1482 1483 1483 1483 1482 1482 1482 1482 1482 1482 1482 1482 1483 1483 1483 1483
1476 1476 1476 1476 1476 1476 1476 1476 1475 1474 1474 1474 1473 1473 1473 1472 1473 1473 1474 1474 1475 1476 1476 1477 1478 1478 1479 1479 1479 1479 1479 1479 1479 1479 1479 1478 1478 1478 1478 1478 1478 1479 1479 1479
1472 1473 1473 1473 1473 1473 1473 1472 1472 1471 1471 1471 1470 1470 1470 1470 1470 1470 1471 1471 1472 1473 1473 1474 1475 1475 1476 1476 1476 1476 1476 1476 1476 1476 1475 1475 1474 1474 1474 1474 1474 1474 1474 1475
1471 1471 1471 1470 1470 1470 1469 1469 1468 1468 1468 1467 1467 1467 1466 1466 1467 1467 1468 1468 1469 1470 1471 1471 1472 1472 1473 1473 1473 1473 1473 1473 1473 1472 1472 1471 1471 1470 1469 1469 1469 1469 1469 1470
1467 1468 1467 1467 1467 1467 1466 1466 1465 1465 1465 1464 1464 1464 1464 1464 1464 1464 1465 1466 1467 1467 1468 1469 1469 1469 1470 1470 1469 1469 1470 1469 1469 1469 1468 1468 1467 1467 1466 1466 1465 1465 1465 1465
1463 1463 1463 1463 1463 1463 1463 1463 1462 1462 1461 1461 1461 1461 1461 1461 1461 1462 1462 1463 1464 1464 1465 1465 1466 1466 1466 1466 1466 1466 1466 1466 1466 1465 1464 1464 1463 1463 1463 1462 1462 1461 1461 1460
1459 1459 1459 1459 1459 1459 1459 1459 1459 1459 1458 1458 1458 1458 1459 1459 1459 1459 1460 1460 1461 1461 1462 1462 1463 1463 1463 1463 1463 1463 1463 1462 1462 1462 1461 1460 1460 1459 1459 1458 1458 1457 1457 1456
1455 1455 1454 1455 1455 1455 1455 1455 1456 1455 1455 1455 1455 1456 1456 1456 1456 1457 1457 1458 1458 1459 1459 1459 1460 1460 1460 1460 1460 1460 1459 1459 1458 1458 1457 1456 1456 1455 1455 1454 1454 1453 1453 1452
1451 1451 1451 1451 1451 1451 1451 1452 1452 1452 1452 1452 1452 1453 1453 1453 1453 1454 1454 1455 1456 1456 1456 1457 1457 1456 1456 1456 1456 1456 1456 1455 1454 1454 1453 1452 1452 1451 1451 1450 1450 1449 1449 1448
1446 1446 1447 1447 1448 1448 1448 1448 1448 1448 1448 1449 1449 1449 1449 1450 1450 1451 1452 1453 1453 1453 1453 1453 1453 1453 1453 1453 1452 1452 1452 1451 1450 1450 1449 1449 1448 1447 1446 1446 1446 1445 1445 1444
1442 1443 1443 1443 1444 1444 1444 1444 1444 1444 1445 1445 1445 1446 1446 1447 1448 1448 1449 1449 1450 1450 1450 1449 1449 1449 1449 1449 1448 1448 1448 1447 1446 1446 1445 1445 1444 1443 1442 1442 1442 1441 1441 1440
1439 1439 1440 1440 1440 1440 1440 1440 1440 1441 1441 1441 1442 1442 1443 1444 1444 1445 1446 1446 1447 1447 1446 1446 1446 1445 1445 1445 1444 1444 1443 1443 1442 1441 1441 1440 1439 1439 1438 1438 1437 1437 1436 1436
1436 1436 1437 1437 1437 1437 1437 1437 1437 1437 1437 1438 1438 1439 1440 1440 1441 1442 1442 1443 1443 1443 1443 1443 1443 1442 1442 1441 1440 1440 1439 1438 1437 1437 1436 1436 1435 1434 1434 1434 1433 1433 1432 1432
1434 1434 1435 1435 1434 1434 1434 1434 1434 1434 1435 1435 1436 1436 1437 1438 1438 1439 1439 1440 1440 1440 1440 1439 1439 1439 1438 1438 1437 1436 1435 1434 1433 1432 1432 1432 1431 1430 1430 1429 1429 1428 1427 1427
1431 1431 1432 1432 1432 1432 1431 1431 1432 1432 1433 1433 1434 1434 1434 1435 1435 1436 1436 1436 1436 1436 1436 1436 1436 1435 1435 1434 1433 1432 1431 1430 1429 1428 1428 1427 1427 1426 1425 1424 1424 1423 1423 1422
1429 1429 1429 1429 1429 1429 1429 1429 1429 1429 1430 1430 1431 1431 1432 1432 1432 1432 1433 1433 1433 1433 1433 1432 1432 1432 1431 1430 1429 1428 1427 1426 1425 1424 1423 1422 1422 1421 1420 1420 1419 1418 1418 1418
1426 1426 1426 1426 1426 1427 1427 1427 1427 1427 1427 1428 1428 1428 1429 1429 1429 1429 1429 1429 1429 1429 1429 1429 1428 1428 1427 1426 1425 1424 1423 1422 1421 1420 1419 1418 1417 1416 1415 1415 1414 1414 1413 1413
1423 1423 1423 1423 1423 1424 1424 1424 1424 1424 1424 1425 1425 1425 1426 1426 1426 1426 1426 1426 1426 1425 1425 1425 1424 1424 1423 1422 1421 1420 1419 1418 1416 1415 1414 1413 1412 1411 1411 1410 1410 1409 1409 1408